DLH6AP OERK-EDDF

Flight info

Callsign DLH6AP
Flight time N/A
Altitude 38000
Route IVONU Z710 GAS G662 NIMAR L550 NOVPA N697 MENLI L677 CVO L617 NOZ L551 ANTAR DCT RIGRO DCT DISOR DCT LONTA UL608 DOLEV DCT BEDOX DCT SIMBA DCT AKINI T161 DEBHI DEBHI1B
Aircraft A346/H-SDE2E3FGHIJ3J4J5M1P2RWXYZ/LB1D1

Departure

Time N/A
Airport King Khalid International Airport (OERK)

Arrival

Time 2026-05-06 14:07
Airport Frankfurt Main Airport (EDDF)
Time Latitude Longitude Altitude Speed Heading
2026-05-06 11:24 36.69962 26.46015 38103 ft 418 kts 329°
2026-05-06 11:25 36.75119 26.42663 38102 ft 417 kts 329°
2026-05-06 11:25 36.80265 26.39315 38102 ft 417 kts 329°
2026-05-06 11:26 36.85410 26.35963 38102 ft 417 kts 329°
2026-05-06 11:26 36.90549 26.32609 38100 ft 417 kts 329°
2026-05-06 11:27 36.95696 26.29245 38102 ft 417 kts 329°
2026-05-06 11:27 36.97561 26.28025 38105 ft 417 kts 329°
2026-05-06 11:28 36.98827 26.27196 38113 ft 417 kts 329°
2026-05-06 11:28 37.02912 26.24519 38097 ft 417 kts 329°
2026-05-06 11:29 37.08058 26.21144 38097 ft 417 kts 329°
2026-05-06 11:29 37.13205 26.17761 38099 ft 417 kts 329°
2026-05-06 11:30 37.18359 26.14369 38101 ft 417 kts 329°
2026-05-06 11:30 37.23513 26.10972 38101 ft 417 kts 329°
2026-05-06 11:31 37.28619 26.07597 38107 ft 416 kts 329°
2026-05-06 11:31 37.33746 26.04208 38101 ft 416 kts 329°
2026-05-06 11:32 37.38878 26.00810 38096 ft 416 kts 329°
2026-05-06 11:32 37.44006 25.97407 38095 ft 416 kts 329°
2026-05-06 11:33 37.49136 25.93997 38080 ft 417 kts 329°
2026-05-06 11:33 37.54266 25.90579 38100 ft 417 kts 329°
2026-05-06 11:34 37.59358 25.87085 38096 ft 416 kts 327°
2026-05-06 11:34 37.64232 25.83250 38095 ft 415 kts 326°
2026-05-06 11:35 37.69121 25.79332 38095 ft 415 kts 326°
2026-05-06 11:35 37.73998 25.75414 38089 ft 415 kts 326°
2026-05-06 11:36 37.78878 25.71488 38087 ft 415 kts 326°
2026-05-06 11:36 37.83755 25.67558 38089 ft 415 kts 325°
2026-05-06 11:37 37.88627 25.63626 38074 ft 415 kts 325°
2026-05-06 11:37 37.93487 25.59697 38084 ft 417 kts 325°
2026-05-06 11:38 37.98375 25.55739 38089 ft 417 kts 325°
2026-05-06 11:38 38.03268 25.51771 38107 ft 417 kts 325°
2026-05-06 11:39 38.08148 25.47805 38088 ft 416 kts 325°
2026-05-06 11:39 38.13023 25.43840 38087 ft 416 kts 325°
2026-05-06 11:40 38.17898 25.39867 38090 ft 416 kts 325°
2026-05-06 11:40 38.22776 25.35886 38084 ft 416 kts 325°
2026-05-06 11:41 38.27623 25.31923 38072 ft 416 kts 325°
2026-05-06 11:41 38.32504 25.27925 38091 ft 417 kts 325°
2026-05-06 11:42 38.37396 25.23913 38085 ft 417 kts 325°
2026-05-06 11:42 38.42282 25.19900 38084 ft 417 kts 325°
2026-05-06 11:43 38.47133 25.15907 38083 ft 417 kts 325°
2026-05-06 11:43 38.52016 25.11883 38084 ft 417 kts 325°
2026-05-06 11:44 38.59338 25.05835 38085 ft 417 kts 325°
2026-05-06 11:44 38.64215 25.01799 38084 ft 417 kts 325°
2026-05-06 11:45 38.69094 24.97753 38079 ft 419 kts 325°
2026-05-06 11:45 38.73996 24.93683 38083 ft 419 kts 325°
2026-05-06 11:46 38.78064 24.90301 38081 ft 419 kts 325°
2026-05-06 11:46 38.82964 24.86220 38086 ft 419 kts 325°
2026-05-06 11:47 38.87856 24.82138 38083 ft 419 kts 325°
2026-05-06 11:47 38.92762 24.78039 38081 ft 419 kts 325°
2026-05-06 11:48 38.97621 24.73972 38081 ft 419 kts 325°
2026-05-06 11:48 39.02506 24.69876 38082 ft 419 kts 325°
2026-05-06 11:49 39.07395 24.65770 38103 ft 419 kts 325°
2026-05-06 11:49 39.12283 24.61656 38078 ft 419 kts 325°
2026-05-06 11:50 39.17168 24.57540 38078 ft 419 kts 325°
2026-05-06 11:50 39.22048 24.53422 38078 ft 419 kts 325°
2026-05-06 11:51 39.26937 24.49288 38073 ft 419 kts 325°
2026-05-06 11:51 39.31784 24.45182 38070 ft 419 kts 325°
2026-05-06 11:52 39.36663 24.41041 38075 ft 419 kts 325°
2026-05-06 11:52 39.41541 24.36895 38066 ft 420 kts 325°
2026-05-06 11:53 39.46428 24.32736 38069 ft 421 kts 325°
2026-05-06 11:53 39.51320 24.28565 38072 ft 421 kts 325°
2026-05-06 11:54 39.56221 24.24378 38072 ft 421 kts 325°
2026-05-06 11:54 39.61079 24.20221 38076 ft 420 kts 325°
2026-05-06 11:55 39.65965 24.16033 38074 ft 420 kts 325°
2026-05-06 11:55 39.70846 24.11842 38073 ft 420 kts 325°
2026-05-06 11:56 39.75724 24.07646 38070 ft 420 kts 325°
2026-05-06 11:56 39.80611 24.03436 38066 ft 422 kts 325°
2026-05-06 11:57 39.85507 23.99210 38072 ft 422 kts 325°
2026-05-06 11:57 39.90404 23.94975 38071 ft 422 kts 325°
2026-05-06 11:58 39.95301 23.90734 38072 ft 422 kts 325°
2026-05-06 11:58 40.00168 23.86512 38068 ft 422 kts 325°
2026-05-06 11:59 40.05063 23.82258 38067 ft 422 kts 325°
2026-05-06 11:59 40.09952 23.78001 38085 ft 422 kts 325°
2026-05-06 12:00 40.14845 23.73732 38054 ft 422 kts 325°
2026-05-06 12:00 40.19746 23.69450 38066 ft 424 kts 325°
2026-05-06 12:01 40.24653 23.65155 38066 ft 424 kts 325°
2026-05-06 12:01 40.29525 23.60883 38061 ft 424 kts 325°
2026-05-06 12:02 40.34436 23.56570 38063 ft 424 kts 325°
2026-05-06 12:02 40.39340 23.52254 38062 ft 424 kts 325°
2026-05-06 12:03 40.44244 23.47932 38057 ft 424 kts 325°
2026-05-06 12:03 40.49144 23.43604 38059 ft 424 kts 325°
2026-05-06 12:04 40.54054 23.39261 38060 ft 426 kts 325°
2026-05-06 12:04 40.58971 23.34903 38058 ft 426 kts 324°
2026-05-06 12:05 40.63857 23.30564 38048 ft 426 kts 324°
2026-05-06 12:05 40.68778 23.26186 38051 ft 426 kts 324°
2026-05-06 12:06 40.73697 23.21802 38044 ft 426 kts 324°
2026-05-06 12:06 40.78613 23.17412 38046 ft 426 kts 324°
2026-05-06 12:07 40.83531 23.13014 38042 ft 426 kts 324°
2026-05-06 12:07 40.88447 23.08609 38040 ft 427 kts 324°
2026-05-06 12:08 40.93378 23.04182 38040 ft 428 kts 324°
2026-05-06 12:08 40.98279 22.99772 38040 ft 428 kts 324°
2026-05-06 12:09 41.03197 22.95340 38037 ft 428 kts 324°
2026-05-06 12:09 41.08124 22.90891 38037 ft 428 kts 324°
2026-05-06 12:10 41.13045 22.86436 38040 ft 428 kts 324°
2026-05-06 12:10 41.17964 22.81976 38031 ft 428 kts 324°
2026-05-06 12:11 41.22780 22.77304 38025 ft 428 kts 320°
2026-05-06 12:11 41.27192 22.72066 38029 ft 427 kts 314°
2026-05-06 12:12 41.31266 22.66298 38034 ft 427 kts 312°
2026-05-06 12:12 41.35267 22.60438 38043 ft 427 kts 311°
2026-05-06 12:13 41.39270 22.54561 38030 ft 428 kts 311°
2026-05-06 12:13 41.43281 22.48661 38030 ft 428 kts 311°
2026-05-06 12:14 41.47254 22.42812 38026 ft 428 kts 311°
2026-05-06 12:14 41.51248 22.36915 38027 ft 428 kts 311°
2026-05-06 12:15 41.55245 22.31003 38018 ft 428 kts 311°
2026-05-06 12:15 41.59233 22.25091 38018 ft 428 kts 311°
2026-05-06 12:16 41.63215 22.19178 38016 ft 428 kts 311°
2026-05-06 12:16 41.67196 22.13256 38017 ft 428 kts 311°
2026-05-06 12:17 41.71191 22.07304 38016 ft 429 kts 311°
2026-05-06 12:17 41.75159 22.01372 38009 ft 430 kts 311°
2026-05-06 12:18 41.79155 21.95390 38012 ft 430 kts 311°
2026-05-06 12:18 41.83141 21.89410 38012 ft 430 kts 311°
2026-05-06 12:19 41.87123 21.83425 38015 ft 430 kts 311°
2026-05-06 12:19 41.91109 21.77425 38008 ft 430 kts 310°
2026-05-06 12:20 41.95078 21.71435 38017 ft 431 kts 310°
2026-05-06 12:20 41.99074 21.65389 38014 ft 431 kts 310°
2026-05-06 12:21 42.03057 21.59351 38014 ft 432 kts 310°
2026-05-06 12:21 42.07046 21.53290 38012 ft 432 kts 310°
2026-05-06 12:22 42.11027 21.47228 38013 ft 432 kts 310°
2026-05-06 12:22 42.15000 21.41165 38011 ft 431 kts 310°
2026-05-06 12:23 42.18935 21.35042 38019 ft 431 kts 309°
2026-05-06 12:23 42.22801 21.28907 38022 ft 431 kts 309°
2026-05-06 12:24 42.26691 21.22720 38028 ft 431 kts 309°
2026-05-06 12:24 42.30572 21.16540 38032 ft 431 kts 309°
2026-05-06 12:25 42.34461 21.10339 38038 ft 432 kts 309°
2026-05-06 12:25 42.38352 21.04119 38040 ft 433 kts 309°
2026-05-06 12:26 42.42248 20.97876 38041 ft 433 kts 309°
2026-05-06 12:26 42.46108 20.91680 38042 ft 432 kts 309°
2026-05-06 12:27 42.49993 20.85432 38042 ft 432 kts 308°
2026-05-06 12:27 42.53864 20.79191 38038 ft 432 kts 308°
2026-05-06 12:28 42.57750 20.72916 38033 ft 434 kts 308°
2026-05-06 12:28 42.61635 20.66623 38030 ft 434 kts 308°
2026-05-06 12:29 42.65522 20.60315 38015 ft 434 kts 308°
2026-05-06 12:29 42.69375 20.54049 38016 ft 434 kts 308°
2026-05-06 12:30 42.73245 20.47740 38016 ft 434 kts 308°
2026-05-06 12:30 42.77118 20.41414 38014 ft 434 kts 308°
2026-05-06 12:31 42.80991 20.35083 38002 ft 434 kts 309°
2026-05-06 12:31 42.85165 20.29096 37999 ft 436 kts 314°
2026-05-06 12:32 42.89686 20.23552 37996 ft 437 kts 316°
2026-05-06 12:32 42.94244 20.18062 37992 ft 437 kts 316°
2026-05-06 12:33 42.98806 20.12554 37988 ft 437 kts 316°
2026-05-06 12:33 43.02597 20.07968 37988 ft 438 kts 315°
2026-05-06 12:34 43.07899 20.01528 37977 ft 438 kts 315°
2026-05-06 12:34 43.12454 19.95981 37978 ft 438 kts 315°
2026-05-06 12:35 43.16267 19.91331 37981 ft 438 kts 315°
2026-05-06 12:35 43.20795 19.85799 37980 ft 438 kts 315°
2026-05-06 12:36 43.25345 19.80228 37988 ft 438 kts 315°
2026-05-06 12:36 43.29891 19.74652 37975 ft 438 kts 315°
2026-05-06 12:37 43.34443 19.69056 37977 ft 438 kts 315°
2026-05-06 12:37 43.38994 19.63448 37967 ft 438 kts 315°
2026-05-06 12:38 43.43535 19.57842 37967 ft 438 kts 315°
2026-05-06 12:38 43.48078 19.52225 37969 ft 439 kts 315°
2026-05-06 12:39 43.52619 19.46591 37972 ft 439 kts 315°
2026-05-06 12:39 43.57133 19.40982 37963 ft 439 kts 315°
2026-05-06 12:40 43.61675 19.35327 37961 ft 439 kts 315°
2026-05-06 12:40 43.66215 19.29664 37943 ft 439 kts 315°
2026-05-06 12:41 43.70733 19.24014 37967 ft 440 kts 315°
2026-05-06 12:41 43.75264 19.18335 37975 ft 440 kts 315°
2026-05-06 12:42 43.79793 19.12645 37959 ft 439 kts 315°
2026-05-06 12:42 43.84325 19.06943 37961 ft 439 kts 315°
2026-05-06 12:43 43.88849 19.01245 37961 ft 440 kts 314°
2026-05-06 12:43 43.93368 18.95532 37958 ft 440 kts 314°
2026-05-06 12:44 43.97894 18.89797 37961 ft 440 kts 314°
2026-05-06 12:44 44.02418 18.84054 37959 ft 440 kts 314°
2026-05-06 12:45 44.06915 18.78336 37951 ft 440 kts 314°
2026-05-06 12:46 44.13708 18.69672 37953 ft 441 kts 314°
2026-05-06 12:46 44.18232 18.63884 37940 ft 441 kts 314°
2026-05-06 12:47 44.22752 18.58089 37941 ft 441 kts 314°
2026-05-06 12:47 44.27239 18.52325 37934 ft 440 kts 313°
2026-05-06 12:48 44.31744 18.46524 37928 ft 440 kts 313°
2026-05-06 12:48 44.36249 18.40712 37928 ft 440 kts 313°
2026-05-06 12:49 44.40744 18.34900 37929 ft 440 kts 313°
2026-05-06 12:49 44.45245 18.29068 37924 ft 440 kts 313°
2026-05-06 12:50 44.49750 18.23225 37930 ft 441 kts 313°
2026-05-06 12:50 44.54242 18.17374 37906 ft 440 kts 313°
2026-05-06 12:51 44.58705 18.11550 37911 ft 440 kts 313°
2026-05-06 12:51 44.63186 18.05690 37907 ft 440 kts 313°
2026-05-06 12:52 44.67682 17.99804 37902 ft 442 kts 312°
2026-05-06 12:52 44.72158 17.93926 37899 ft 442 kts 312°
2026-05-06 12:53 44.76654 17.88007 37904 ft 442 kts 312°
2026-05-06 12:53 44.81137 17.82095 37897 ft 441 kts 312°
2026-05-06 12:54 44.85619 17.76168 37900 ft 441 kts 312°
2026-05-06 12:54 44.90098 17.70235 37893 ft 443 kts 311°
2026-05-06 12:55 44.94597 17.64260 37899 ft 443 kts 311°
2026-05-06 12:55 44.99059 17.58320 37900 ft 443 kts 311°
2026-05-06 12:56 45.03540 17.52343 37889 ft 441 kts 311°
2026-05-06 12:56 45.08010 17.46367 37896 ft 443 kts 311°
2026-05-06 12:57 45.12498 17.40351 37886 ft 444 kts 311°
2026-05-06 12:57 45.16986 17.34324 37896 ft 444 kts 311°
2026-05-06 12:58 45.21471 17.28287 37890 ft 444 kts 311°
2026-05-06 12:58 45.25955 17.22237 37898 ft 444 kts 311°
2026-05-06 12:59 45.30403 17.16222 37901 ft 444 kts 311°
2026-05-06 12:59 45.34877 17.10158 37900 ft 444 kts 311°
2026-05-06 13:00 45.39352 17.04078 37885 ft 444 kts 311°
2026-05-06 13:00 45.43822 16.97993 37905 ft 444 kts 311°
2026-05-06 13:01 45.48292 16.91891 37900 ft 445 kts 311°
2026-05-06 13:01 45.52762 16.85774 37902 ft 445 kts 311°
2026-05-06 13:02 45.57239 16.79638 37898 ft 445 kts 311°
2026-05-06 13:02 45.61678 16.73536 37903 ft 445 kts 311°
2026-05-06 13:03 45.66148 16.67379 37904 ft 445 kts 311°
2026-05-06 13:03 45.70613 16.61211 37913 ft 447 kts 311°
2026-05-06 13:04 45.75092 16.55013 37905 ft 447 kts 311°
2026-05-06 13:04 45.79569 16.48804 37915 ft 447 kts 311°
2026-05-06 13:05 45.84026 16.42607 37922 ft 446 kts 311°
2026-05-06 13:05 45.88487 16.36388 37930 ft 446 kts 311°
2026-05-06 13:06 45.92955 16.30141 37928 ft 448 kts 311°
2026-05-06 13:06 45.97422 16.23887 37924 ft 448 kts 311°
2026-05-06 13:07 46.01853 16.17667 37922 ft 448 kts 311°
2026-05-06 13:07 46.06322 16.11380 37925 ft 447 kts 310°
2026-05-06 13:08 46.10768 16.05102 37924 ft 447 kts 310°
2026-05-06 13:08 46.15221 15.98793 37961 ft 452 kts 310°
2026-05-06 13:08 46.17466 15.95606 38228 ft 452 kts 310°
2026-05-06 13:09 46.19707 15.92424 38617 ft 451 kts 310°
2026-05-06 13:09 46.21944 15.89244 38892 ft 450 kts 311°
2026-05-06 13:09 46.24174 15.86070 39100 ft 450 kts 311°
2026-05-06 13:09 46.26406 15.82892 39283 ft 451 kts 311°
2026-05-06 13:10 46.28678 15.79739 39475 ft 452 kts 312°
2026-05-06 13:10 46.30979 15.76629 39663 ft 452 kts 312°
2026-05-06 13:10 46.33280 15.73527 39861 ft 451 kts 312°
2026-05-06 13:11 46.37845 15.67341 39905 ft 452 kts 312°
2026-05-06 13:11 46.42436 15.61087 39905 ft 452 kts 312°
2026-05-06 13:12 46.47010 15.54834 39904 ft 452 kts 312°
2026-05-06 13:12 46.51583 15.48557 39915 ft 452 kts 312°
2026-05-06 13:13 46.56159 15.42256 39914 ft 453 kts 312°
2026-05-06 13:13 46.60690 15.36004 39896 ft 452 kts 312°
2026-05-06 13:14 46.65262 15.29684 39894 ft 453 kts 312°
2026-05-06 13:14 46.69835 15.23348 39878 ft 453 kts 312°
2026-05-06 13:15 46.74405 15.17003 39886 ft 453 kts 311°
2026-05-06 13:15 46.78981 15.10633 39881 ft 455 kts 311°
2026-05-06 13:16 46.83551 15.04254 39883 ft 454 kts 311°
2026-05-06 13:16 46.88112 14.97870 39868 ft 453 kts 311°
2026-05-06 13:17 46.92666 14.91482 39874 ft 453 kts 311°
2026-05-06 13:17 46.97226 14.85068 39882 ft 455 kts 311°
2026-05-06 13:18 47.01759 14.78677 39872 ft 455 kts 311°
2026-05-06 13:18 47.06333 14.72215 39890 ft 456 kts 311°
2026-05-06 13:19 47.10893 14.65763 39877 ft 453 kts 311°
2026-05-06 13:19 47.15429 14.59323 39876 ft 453 kts 311°
2026-05-06 13:20 47.19931 14.52916 39880 ft 454 kts 311°
2026-05-06 13:20 47.24475 14.46433 39871 ft 455 kts 311°
2026-05-06 13:21 47.29018 14.39935 39858 ft 455 kts 311°
2026-05-06 13:21 47.33564 14.33418 39860 ft 455 kts 310°
2026-05-06 13:22 47.38106 14.26885 39841 ft 456 kts 310°
2026-05-06 13:22 47.42655 14.20323 39818 ft 458 kts 310°
2026-05-06 13:23 47.46444 14.14845 39817 ft 458 kts 310°
2026-05-06 13:23 47.50999 14.08248 39812 ft 458 kts 310°
2026-05-06 13:24 47.55554 14.01634 39799 ft 458 kts 310°
2026-05-06 13:24 47.60113 13.95004 39793 ft 459 kts 310°
2026-05-06 13:25 47.64686 13.88329 39778 ft 462 kts 310°
2026-05-06 13:25 47.69276 13.81611 39768 ft 463 kts 310°
2026-05-06 13:26 47.73843 13.74909 39753 ft 463 kts 310°
2026-05-06 13:26 47.78429 13.68161 39748 ft 463 kts 310°
2026-05-06 13:27 47.83012 13.61400 39776 ft 463 kts 310°
2026-05-06 13:27 47.87617 13.54587 39755 ft 468 kts 310°
2026-05-06 13:28 47.92244 13.47724 39743 ft 469 kts 310°
2026-05-06 13:28 47.96876 13.40835 39739 ft 469 kts 310°
2026-05-06 13:29 48.01503 13.33935 39736 ft 469 kts 310°
2026-05-06 13:29 48.06094 13.27065 39752 ft 469 kts 310°
2026-05-06 13:30 48.10710 13.20140 39740 ft 470 kts 310°
2026-05-06 13:30 48.15325 13.13200 39742 ft 469 kts 310°
2026-05-06 13:31 48.19931 13.06249 39750 ft 469 kts 310°
2026-05-06 13:31 48.24455 12.99188 39748 ft 467 kts 307°
2026-05-06 13:32 48.28778 12.91903 39750 ft 466 kts 307°
2026-05-06 13:32 48.33075 12.84598 39748 ft 465 kts 307°
2026-05-06 13:33 48.37332 12.77350 39750 ft 465 kts 307°
2026-05-06 13:33 48.41607 12.70054 39749 ft 464 kts 307°
2026-05-06 13:34 48.45878 12.62750 39748 ft 464 kts 307°
2026-05-06 13:34 48.50149 12.55425 39750 ft 464 kts 307°
2026-05-06 13:35 48.54407 12.48100 39750 ft 464 kts 307°
2026-05-06 13:35 48.58658 12.40762 39747 ft 464 kts 307°
2026-05-06 13:36 48.62902 12.33416 39752 ft 464 kts 307°
2026-05-06 13:36 48.67146 12.26048 39753 ft 464 kts 306°
2026-05-06 13:37 48.71124 12.18364 39762 ft 462 kts 298°
2026-05-06 13:37 48.74153 12.09856 39759 ft 456 kts 289°
2026-05-06 13:38 48.76132 12.00849 39759 ft 450 kts 279°
2026-05-06 13:38 48.77253 11.91529 39763 ft 449 kts 275°
2026-05-06 13:39 48.78238 11.82155 39779 ft 449 kts 275°
2026-05-06 13:39 48.79226 11.72787 39771 ft 449 kts 275°
2026-05-06 13:40 48.80212 11.63468 39767 ft 449 kts 275°
2026-05-06 13:40 48.81193 11.54084 39469 ft 449 kts 275°
2026-05-06 13:40 48.81678 11.49384 39234 ft 449 kts 275°
2026-05-06 13:41 48.82158 11.44705 38985 ft 449 kts 275°
2026-05-06 13:41 48.82637 11.40017 38675 ft 449 kts 274°
2026-05-06 13:41 48.83162 11.35324 38137 ft 451 kts 277°
2026-05-06 13:41 48.83974 11.30707 37501 ft 454 kts 283°
2026-05-06 13:42 48.85109 11.26205 36902 ft 457 kts 289°
2026-05-06 13:42 48.86556 11.21878 36266 ft 461 kts 294°
2026-05-06 13:42 48.88314 11.17763 35630 ft 466 kts 300°
2026-05-06 13:42 48.90371 11.13927 35107 ft 468 kts 306°
2026-05-06 13:43 48.92669 11.10430 34564 ft 465 kts 310°
2026-05-06 13:43 48.95048 11.07124 34073 ft 459 kts 311°
2026-05-06 13:43 48.97403 11.03910 33462 ft 449 kts 310°
2026-05-06 13:43 48.99681 11.00750 32711 ft 439 kts 310°
2026-05-06 13:44 49.01915 10.97616 32105 ft 436 kts 310°
2026-05-06 13:44 49.04145 10.94471 31854 ft 436 kts 310°
2026-05-06 13:44 49.06336 10.91383 31511 ft 433 kts 310°
2026-05-06 13:44 49.08559 10.88250 30820 ft 436 kts 310°
2026-05-06 13:45 49.10795 10.85092 30038 ft 439 kts 310°
2026-05-06 13:45 49.15301 10.78707 28316 ft 444 kts 311°
2026-05-06 13:45 49.17572 10.75483 27589 ft 446 kts 311°
2026-05-06 13:46 49.19823 10.72232 27184 ft 439 kts 309°
2026-05-06 13:46 49.21958 10.68955 26799 ft 432 kts 308°
2026-05-06 13:46 49.24052 10.65652 26477 ft 430 kts 309°
2026-05-06 13:46 49.26125 10.62369 26143 ft 426 kts 309°
2026-05-06 13:47 49.28178 10.59110 25632 ft 423 kts 310°
2026-05-06 13:47 49.30200 10.55908 25060 ft 423 kts 310°
2026-05-06 13:47 49.32277 10.52626 24558 ft 420 kts 310°
2026-05-06 13:47 49.34296 10.49367 24120 ft 416 kts 309°
2026-05-06 13:48 49.36156 10.46068 23712 ft 412 kts 306°
2026-05-06 13:48 49.37908 10.42609 23613 ft 410 kts 303°
2026-05-06 13:48 49.39573 10.39034 23627 ft 411 kts 302°
2026-05-06 13:48 49.41222 10.35419 23321 ft 412 kts 302°
2026-05-06 13:49 49.42855 10.31822 22801 ft 408 kts 302°
2026-05-06 13:49 49.44474 10.28253 22372 ft 403 kts 302°
2026-05-06 13:49 49.46075 10.24724 21960 ft 401 kts 302°
2026-05-06 13:49 49.47669 10.21209 21540 ft 399 kts 302°
2026-05-06 13:50 49.49251 10.17718 21142 ft 396 kts 302°
2026-05-06 13:50 49.50825 10.14240 20723 ft 393 kts 302°
2026-05-06 13:50 49.52386 10.10788 20297 ft 391 kts 302°
2026-05-06 13:50 49.53935 10.07361 19908 ft 389 kts 302°
2026-05-06 13:51 49.55474 10.03950 19498 ft 386 kts 302°
2026-05-06 13:51 49.56984 10.00598 19104 ft 384 kts 302°
2026-05-06 13:51 49.58501 9.97231 18705 ft 381 kts 302°
2026-05-06 13:51 49.60012 9.93876 18300 ft 379 kts 302°
2026-05-06 13:52 49.61510 9.90542 17874 ft 376 kts 302°
2026-05-06 13:52 49.63004 9.87209 17420 ft 375 kts 302°
2026-05-06 13:52 49.64483 9.83906 17002 ft 372 kts 302°
2026-05-06 13:52 49.65951 9.80622 16589 ft 370 kts 302°
2026-05-06 13:53 49.67407 9.77359 16191 ft 367 kts 302°
2026-05-06 13:53 49.68854 9.74111 15783 ft 365 kts 302°
2026-05-06 13:53 49.70292 9.70880 15379 ft 363 kts 302°
2026-05-06 13:53 49.71715 9.67676 14972 ft 360 kts 302°
2026-05-06 13:54 49.73133 9.64486 14583 ft 358 kts 302°
2026-05-06 13:54 49.74650 9.61443 14175 ft 356 kts 308°
2026-05-06 13:54 49.76289 9.58580 13709 ft 355 kts 309°
2026-05-06 13:54 49.77940 9.55746 13222 ft 352 kts 309°
2026-05-06 13:55 49.79567 9.52927 12539 ft 350 kts 309°
2026-05-06 13:55 49.81238 9.49994 12114 ft 343 kts 309°
2026-05-06 13:55 49.82710 9.47387 11759 ft 339 kts 308°
2026-05-06 13:55 49.84240 9.44661 11509 ft 330 kts 308°
2026-05-06 13:56 49.85730 9.41995 11175 ft 324 kts 308°
2026-05-06 13:56 49.87194 9.39368 10796 ft 320 kts 308°
2026-05-06 13:56 49.88640 9.36772 10425 ft 316 kts 308°
2026-05-06 13:56 49.90072 9.34196 10016 ft 311 kts 308°
2026-05-06 13:57 49.91449 9.31715 9599 ft 296 kts 308°
2026-05-06 13:57 49.92760 9.29354 9189 ft 283 kts 308°
2026-05-06 13:57 49.94040 9.27036 8871 ft 282 kts 308°
2026-05-06 13:57 49.95316 9.24725 8503 ft 280 kts 308°
2026-05-06 13:58 49.96564 9.22467 8148 ft 278 kts 308°
2026-05-06 13:58 49.97863 9.20115 7780 ft 276 kts 308°
2026-05-06 13:58 49.99075 9.17921 7428 ft 275 kts 308°
2026-05-06 13:58 50.00318 9.15665 7070 ft 274 kts 308°
2026-05-06 13:59 50.01555 9.13423 6732 ft 272 kts 308°
2026-05-06 13:59 50.02786 9.11184 6272 ft 272 kts 308°
2026-05-06 13:59 50.04011 9.08949 5818 ft 270 kts 308°
2026-05-06 13:59 50.05244 9.06704 5357 ft 268 kts 308°
2026-05-06 14:00 50.06453 9.04508 4922 ft 266 kts 307°
2026-05-06 14:00 50.07650 9.02326 4614 ft 263 kts 307°
2026-05-06 14:00 50.08826 9.00173 4346 ft 259 kts 307°
2026-05-06 14:00 50.09954 8.98028 4035 ft 250 kts 298°
2026-05-06 14:01 50.10636 8.95661 3992 ft 230 kts 285°
2026-05-06 14:01 50.11129 8.93349 3998 ft 224 kts 284°
2026-05-06 14:01 50.11389 8.91024 3949 ft 207 kts 263°
2026-05-06 14:01 50.11142 8.88956 4001 ft 186 kts 252°
2026-05-06 14:02 50.10779 8.87086 3995 ft 178 kts 250°
2026-05-06 14:02 50.10380 8.85246 3941 ft 179 kts 249°
2026-05-06 14:02 50.09962 8.83437 3697 ft 175 kts 248°
2026-05-06 14:02 50.09543 8.81680 3464 ft 171 kts 248°
2026-05-06 14:03 50.09129 8.79967 3231 ft 166 kts 249°
2026-05-06 14:03 50.08717 8.78275 3030 ft 167 kts 249°
2026-05-06 14:03 50.08307 8.76576 2817 ft 168 kts 248°
2026-05-06 14:03 50.07894 8.74874 2603 ft 166 kts 249°
2026-05-06 14:04 50.07497 8.73190 2385 ft 164 kts 252°
2026-05-06 14:04 50.07254 8.71465 2229 ft 161 kts 261°
2026-05-06 14:04 50.07104 8.69747 2068 ft 157 kts 257°
2026-05-06 14:04 50.06806 8.68185 1774 ft 148 kts 248°
2026-05-06 14:05 50.06411 8.66699 1539 ft 146 kts 248°
2026-05-06 14:05 50.06029 8.65262 1318 ft 145 kts 251°
2026-05-06 14:05 50.05712 8.63768 1171 ft 145 kts 249°
2026-05-06 14:05 50.05362 8.62278 972 ft 146 kts 249°
2026-05-06 14:06 50.04998 8.60745 693 ft 154 kts 249°
2026-05-06 14:06 50.04641 8.59240 524 ft 142 kts 249°
2026-05-06 14:06 50.04309 8.57846 375 ft 123 kts 249°
2026-05-06 14:06 50.04099 8.56966 373 ft 59 kts 249°
2026-05-06 14:07 50.03979 8.56463 369 ft 45 kts 249°
2026-05-06 14:07 50.03891 8.56056 365 ft 30 kts 258°
2026-05-06 14:07 50.03886 8.55844 361 ft 10 kts 278°
2026-05-06 14:07 50.03900 8.55708 362 ft 15 kts 286°
2026-05-06 14:08 50.03946 8.55645 364 ft 9 kts 359°
2026-05-06 14:08 50.03989 8.55703 359 ft 9 kts 67°
2026-05-06 14:08 50.04016 8.55812 366 ft 12 kts 69°
2026-05-06 14:08 50.04045 8.55931 360 ft 11 kts 65°
2026-05-06 14:09 50.04097 8.55966 365 ft 9 kts 346°
2026-05-06 14:09 50.04147 8.55939 365 ft 7 kts 339°
2026-05-06 14:09 50.04204 8.55920 361 ft 9 kts 10°
2026-05-06 14:09 50.04273 8.55957 366 ft 11 kts
2026-05-06 14:10 50.04324 8.55940 366 ft 11 kts 339°
2026-05-06 14:10 50.04398 8.55906 370 ft 12 kts
2026-05-06 14:10 50.04492 8.55940 370 ft 16 kts 16°
2026-05-06 14:10 50.04576 8.56058 368 ft 18 kts 69°
2026-05-06 14:11 50.04608 8.56187 368 ft 10 kts 70°
2026-05-06 14:11 50.04638 8.56313 366 ft 14 kts 70°
2026-05-06 14:11 50.04674 8.56465 368 ft 10 kts 70°
2026-05-06 14:11 50.04693 8.56523 370 ft 4 kts 40°
2026-05-06 14:12 50.04721 8.56527 367 ft 4 kts 347°
2026-05-06 14:12 50.04751 8.56510 368 ft 4 kts 340°
2026-05-06 14:12 50.04763 8.56503 370 ft 3 kts 340°
2026-05-06 14:12 50.04774 8.56497 368 ft 1 kts 340°